"Pseudo-MPEC" for P10HMT1

Created 2018 Jun 19 21:18:06 UT using Find_Orb

Click here for an explanation of pseudo-MPECs

 
 Astrometry: 
     P10HMT1  C2018 06 13LZAstrometry$BH7P*YLoZKZ;MB$[iFFZcGgl[PHe)iyQ[O[:U*NF51
     P10HMT1  C2018 06 13di-amh*mid16+#K[%7^.Z79o@NcuX7!w[/^(QhP@RaV]\rCs0,-GF51
     P10HMT1  C2018 06 13EWgt@,2r)G[g)2/Y-at=x8yK6L[BZ)A7Jo1AC9_Dt'N`6-mR\1*NF51
     P10HMT1 |C2018 06 150Ud]7`qt(bxwM?yK2_o`@CGV+n.gYmojHZ'9tR3nfA+SlrlbX2_Y807
     P10HMT1 |C2018 06 15CjN+1-x[QGo2:id(lredacted;XnFTSSFKFb*2HcUlkaXy_9*`.=807
     P10HMT1 |C2018 06 15Uw']C:Qin*wn0CWnU%1eq#LOVeB`PW[(9rKSIo!-loqiLex+w=#i807
     P10HMT1 ^C2018 06 15.57355120 19 18.673-18 35 58.83         21.72GVNEOCP568
     P10HMT1 ^C2018 06 15.57449520 19 18.742-18 35 59.16         21.67GVNEOCP568
     P10HMT1 ^C2018 06 15.57544120 19 18.815-18 35 59.54         21.45GVNEOCP568
     P10HMT1 ^C2018 06 15.57638520 19 18.880-18 35 59.93         21.50GVNEOCP568
     P10HMT1 ^C2018 06 15.57733620 19 18.950-18 36 00.29         21.62GVNEOCP568
     P10HMT1 ^C2018 06 15.57828220 19 19.021-18 36 00.60         21.51GVNEOCP568
     P10HMT1 |C2018 06 17,0/)JiY($;AvANy6O,\x$%KCWV@u3tt*M#/p67tRXJs,Ic5Vy34X807
     P10HMT1 |C2018 06 178W5IR06O0eVgtMX1!0CL])O+S+s1D+Fmsee71]=`H(p5VwmAyWd%807
     P10HMT1 |C2018 06 17nmTne:Gqg2oLYcjy[*G=7tx^;Qp0dM3mX4dG3LZO6$(q.P4bAb:%807
     P10HMT1 |C2018 06 19$EO^/:eN'X`;B`bU3v^#gNbq%8%?q]?GAN;,VB?=]aWqDv/GwvO_807
     P10HMT1 |C2018 06 19Gld9K^1bW2]_Miob3,Jj,u5)^65f?\2^v7vay-s\lF%bohu!lf.A807
     P10HMT1 |C2018 06 19!k%7K:WjQi(MZX4Yea;X-A@VcWU\ev7V!([p`LG).tdgbCRNEOCP807

Station data:
(568) Mauna Kea  (N19.826116 W155.472200)  US/Hawaii.
(807) Cerro Tololo Observatory, La Serena  (S30.169136 W70.805900)  Chile.
   1.5-m Ritchey-Chrétien.
(F51) Pan-STARRS 1, Haleakala  (N20.707235 W156.255910)  US/Hawaii.
   Observers N. Primak, A. Schultz, S. Watters, J. Thiel, T. Goggia. Measurer
   PS1 Science Consortium. 1.8-m Ritchey-Chrétien + CCD.

Orbital elements:  P10HMT1
   Perihelion 2018 Sep 7.249382 +/- 0.192 TT =  5:59:06 (JD 2458368.749382)
Epoch 2018 Jun 19.0 TT = JDT 2458288.5   Earth MOID: 0.2980   Ma: 0.0073
M 341.57204 +/- 0.26                (J2000 ecliptic)          AutoNEOCP
n   0.22963362 +/- 0.00281          Peri.  238.25507 +/- 0.23
a   2.64106484 +/- 0.0215           Node   101.58303 +/- 0.033
e   0.5152013 +/- 0.00308           Incl.    7.72321 +/- 0.025
P   4.29                   H 21.0   G  0.15   U  8.8  
q 1.28038472 +/- 0.00264    Q 4.00174497 +/- 0.0413
From 18 observations 2018 June 13-19; mean residual 0".08
Residuals in arcseconds: 
180613 F51  .04+  .01-    180615 568  .02-  .01-    180617 807  .01-  .02-    
180613 F51  .04+  .05+    180615 568  .02-  .03+    180617 807  .15-  .12+    
180613 F51  .14-  .02-    180615 568  .03+  .03+    180617 807  .01-  .01+    
180615 807  .00   .07+    180615 568  .03-  .01+    180619 807  .02-  .04-    
180615 807  .02+  .07+    180615 568  .02-  .02+    180619 807  .02+  .03-    
180615 807  .17+  .33-    180615 568  .00   .08+    180619 807  .01-  .05+    

Ephemerides (geocentric):
Date (UTC) HH   RA              Dec         delta   r     elong  mag " sig PA
---- -- -- --  -------------   -----------  ------ ------ -----  --- ---- ---
2018 06 19 21  20 24 54.937   -19 07 38.86  .58534 1.5302 144.3 21.8  .24  23
2018 06 19 22  20 24 58.161   -19 07 59.35  .58497 1.5300 144.4 21.8  .25  23
2018 06 19 23  20 25 01.384   -19 08 19.88  .58460 1.5298 144.4 21.8  .26  23
2018 06 20 00  20 25 04.606   -19 08 40.45  .58423 1.5295 144.4 21.8  .27  23
2018 06 20 01  20 25 07.828   -19 09 01.05  .58386 1.5293 144.4 21.8  .28  23
2018 06 20 02  20 25 11.049   -19 09 21.70  .58348 1.5291 144.5 21.8  .29  23
2018 06 20 03  20 25 14.269   -19 09 42.39  .58311 1.5289 144.5 21.8  .30  23
2018 06 20 04  20 25 17.489   -19 10 03.12  .58274 1.5286 144.5 21.8  .30  23
2018 06 20 05  20 25 20.709   -19 10 23.89  .58237 1.5284 144.6 21.8  .31  22
2018 06 20 06  20 25 23.928   -19 10 44.70  .58200 1.5282 144.6 21.8  .32  22
2018 06 20 07  20 25 27.146   -19 11 05.55  .58163 1.5280 144.6 21.8  .33  22
2018 06 20 08  20 25 30.364   -19 11 26.43  .58126 1.5277 144.6 21.8  .34  22
2018 06 20 09  20 25 33.581   -19 11 47.36  .58089 1.5275 144.7 21.8  .35  22
2018 06 20 10  20 25 36.797   -19 12 08.33  .58052 1.5273 144.7 21.8  .36  22
2018 06 20 11  20 25 40.013   -19 12 29.34  .58016 1.5270 144.7 21.8  .37  22
2018 06 20 12  20 25 43.229   -19 12 50.39  .57979 1.5268 144.8 21.8  .38  22
2018 06 20 13  20 25 46.444   -19 13 11.48  .57942 1.5266 144.8 21.8  .39  22
2018 06 20 14  20 25 49.658   -19 13 32.61  .57905 1.5264 144.8 21.8  .40  22
2018 06 20 15  20 25 52.872   -19 13 53.77  .57868 1.5261 144.8 21.8  .41  22
2018 06 20 16  20 25 56.085   -19 14 14.98  .57831 1.5259 144.9 21.8  .42  22
2018 06 20 17  20 25 59.298   -19 14 36.23  .57795 1.5257 144.9 21.8  .43  22
2018 06 20 18  20 26 02.510   -19 14 57.52  .57758 1.5255 144.9 21.8  .45  22
2018 06 20 19  20 26 05.722   -19 15 18.86  .57721 1.5252 145.0 21.8  .46  22
2018 06 20 20  20 26 08.933   -19 15 40.23  .57685 1.5250 145.0 21.8  .47  22
2018 06 20 21  20 26 12.143   -19 16 01.64  .57648 1.5248 145.0 21.8  .48  22
2018 06 20 22  20 26 15.353   -19 16 23.09  .57611 1.5246 145.1 21.8  .49  21
2018 06 20 23  20 26 18.562   -19 16 44.58  .57575 1.5243 145.1 21.8  .50  21
2018 06 21 00  20 26 21.771   -19 17 06.12  .57538 1.5241 145.1 21.8  .51  21
2018 06 21 01  20 26 24.979   -19 17 27.69  .57502 1.5239 145.1 21.8  .52  21
2018 06 21 02  20 26 28.187   -19 17 49.30  .57465 1.5237 145.2 21.8  .54  21
2018 06 21 03  20 26 31.394   -19 18 10.96  .57428 1.5234 145.2 21.8  .55  21
2018 06 21 04  20 26 34.601   -19 18 32.66  .57392 1.5232 145.2 21.7  .56  21
2018 06 21 05  20 26 37.807   -19 18 54.39  .57356 1.5230 145.3 21.7  .57  21
2018 06 21 06  20 26 41.012   -19 19 16.17  .57319 1.5228 145.3 21.7  .58  21
2018 06 21 07  20 26 44.217   -19 19 37.99  .57283 1.5225 145.3 21.7  .60  21
2018 06 21 08  20 26 47.422   -19 19 59.85  .57246 1.5223 145.3 21.7  .61  21
2018 06 21 09  20 26 50.625   -19 20 21.75  .57210 1.5221 145.4 21.7  .62  21
2018 06 21 10  20 26 53.829   -19 20 43.69  .57174 1.5219 145.4 21.7  .63  21
2018 06 21 11  20 26 57.032   -19 21 05.67  .57137 1.5217 145.4 21.7  .65  21
2018 06 21 12  20 27 00.234   -19 21 27.69  .57101 1.5214 145.5 21.7  .66  21
2018 06 21 13  20 27 03.436   -19 21 49.76  .57065 1.5212 145.5 21.7  .67  21
2018 06 21 14  20 27 06.637   -19 22 11.86  .57028 1.5210 145.5 21.7  .69  21
2018 06 21 15  20 27 09.837   -19 22 34.01  .56992 1.5208 145.5 21.7  .70  21
2018 06 21 16  20 27 13.038   -19 22 56.20  .56956 1.5205 145.6 21.7  .71  21
2018 06 21 17  20 27 16.237   -19 23 18.43  .56920 1.5203 145.6 21.7  .73  21
2018 06 21 18  20 27 19.436   -19 23 40.70  .56884 1.5201 145.6 21.7  .74  21
2018 06 21 19  20 27 22.635   -19 24 03.01  .56848 1.5199 145.7 21.7  .75  20
2018 06 21 20  20 27 25.833   -19 24 25.36  .56811 1.5196 145.7 21.7  .77  20